Location: Waco, TX
(31.5480°N, 97.1670°W)
Time: 02:05:49
(UTC-06:00)

ISS - Pass Details

Date: 31 January 2021
Orbit: 417 x 422 km, 51.6° (Epoch: 09 March)

Event Time Altitude Azimuth Distance (km) Brightness Sun altitude
Rises 13:56:28 0° 241° (WSW) 2,350 0.6 38.1°
Reaches altitude 10° 13:58:40 10° 251° (WSW) 1,491 -0.3 38.0°
Maximum altitude 14:01:47 35° 319° (NW) 688 -2.6 37.7°
Drops below altitude 10° 14:04:55 10° 28° (NNE) 1,500 -1.3 37.4°
Sets 14:07:08 0° 37° (NE) 2,368 -0.4 37.2°
